RH
65 67 67 70 69 70 70 65 67 70 70 68 63 54 42 33 31 29 28 28 28 30 33 36 40 39 33 31 30 30 32 33 33 35 36 35 31 26 24 27 32 34 36 37 37 37 38 39 40 42 43 45 46 47 47 46 45 44 41 37 32 27 22 18 16 14 12 10 8 7 6 6 7 7
64 61 64 68 74 78 74 67 68 71 73 69 61 53 44 36 33 29 26 27 27 28 31 34 39 40 33 31 31 31 32 34 34 35 37 38 35 29 26 28 33 37 38 39 40 40 41 41 42 44 47 49 50 51 52 52 53 52 51 48 43 38 31 25 20 16 14 13 10 8 7 6 6 7
68 64 66 67 71 76 73 70 72 72 73 70 59 52 47 40 36 32 30 29 27 28 30 33 37 37 33 32 31 31 33 34 34 35 37 40 40 34 29 28 34 40 42 42 43 43 43 42 42 45 49 51 53 54 55 56 57 57 56 55 52 49 43 36 29 21 17 15 12 10 8 6 6 7
70 68 68 66 68 70 67 69 73 71 69 66 59 55 50 42 38 36 34 32 29 29 30 31 34 35 34 35 31 30 35 36 34 35 37 41 43 40 36 33 35 39 42 45 45 45 44 42 42 46 49 52 54 56 57 58 58 59 59 58 57 55 51 46 38 30 22 17 14 12 9 7 6 6
72 71 69 66 69 70 67 68 72 73 68 61 59 58 51 42 37 37 35 32 30 31 32 31 31 33 37 40 37 33 36 38 36 37 40 42 43 42 41 39 38 38 38 42 45 46 46 45 45 48 50 52 54 55 57 58 58 59 60 61 61 59 57 53 47 40 31 22 16 14 11 8 7 7
76 75 71 69 70 69 69 70 72 74 66 57 55 54 48 41 38 37 35 34 33 33 35 34 30 31 36 42 44 40 40 41 39 40 43 44 45 43 41 41 41 38 37 41 46 47 47 48 48 49 51 53 54 55 56 57 58 59 60 61 62 63 62 59 54 47 39 28 20 15 12 9 7 7
78 78 71 70 73 69 70 72 72 71 62 53 52 47 42 39 35 36 37 36 35 36 38 38 33 31 35 41 44 42 42 43 41 41 42 43 46 46 44 44 42 40 41 46 49 49 49 49 49 50 51 52 53 54 55 57 57 59 60 60 62 63 64 63 60 54 45 34 24 17 13 10 7 7
71 78 75 75 79 77 75 72 70 68 59 52 51 43 38 36 31 35 40 38 38 38 38 38 36 36 35 37 40 41 42 44 44 44 43 43 46 49 49 49 46 44 46 49 50 49 49 48 48 49 50 51 52 53 54 56 57 58 59 60 61 62 64 64 64 60 51 38 27 19 14 10 8 8
64 71 78 82 81 79 78 73 68 64 55 51 49 41 37 36 30 34 42 40 40 41 39 36 36 39 39 36 37 39 40 42 44 46 47 46 46 48 49 50 49 48 48 48 49 48 47 47 48 49 50 50 51 52 54 55 56 57 59 60 61 62 63 64 65 64 57 45 32 21 15 11 8 8
61 63 73 79 79 79 79 72 65 61 55 52 49 40 38 38 31 33 42 44 43 43 42 39 36 39 42 40 40 40 39 40 42 44 47 49 47 47 47 48 49 49 48 47 47 47 47 47 48 49 51 51 51 52 54 55 56 56 57 59 60 61 63 65 66 66 63 53 38 24 15 10 8 8
57 60 66 70 74 79 77 67 62 62 57 54 51 41 37 39 35 33 37 41 43 45 46 44 40 39 42 43 44 42 40 40 39 40 44 48 47 46 45 45 46 46 46 46 46 47 47 48 50 53 53 52 52 52 53 54 54 56 57 59 60 61 64 65 66 67 65 58 44 27 15 10 8 8
59 63 66 66 68 71 69 65 63 61 57 56 54 44 40 43 43 38 37 38 40 43 45 44 44 43 43 43 43 42 42 42 40 40 41 43 44 44 44 44 44 43 43 44 45 46 47 50 52 55 55 53 52 52 53 53 54 55 56 58 59 62 64 66 66 67 66 61 47 28 15 10 9 8
63 64 65 65 66 66 66 66 65 64 61 58 55 49 45 48 49 46 46 46 45 46 47 47 46 47 47 46 44 42 42 42 42 42 42 42 42 42 42 42 43 43 43 44 45 47 49 51 53 55 56 54 53 53 55 55 56 56 57 58 59 61 64 66 67 67 67 63 49 29 14 9 9 9
62 63 63 63 65 65 66 66 65 66 65 61 61 60 54 53 56 55 55 54 52 50 50 50 49 49 49 48 47 46 46 46 46 45 44 44 44 43 43 44 45 47 47 46 46 48 50 53 55 56 57 56 56 57 58 58 59 60 61 61 61 62 64 66 67 68 68 65 51 29 14 9 10 11
58 59 62 62 61 63 66 66 64 64 67 67 67 66 61 58 59 60 59 59 57 55 54 54 52 51 50 49 48 48 47 47 47 47 46 46 46 46 46 46 47 50 51 49 49 51 53 55 57 57 58 60 60 59 59 60 61 63 64 64 64 65 66 67 69 69 69 66 51 27 13 10 11 12
55 54 59 62 59 58 60 60 60 61 65 68 68 67 66 63 62 61 59 59 58 57 56 55 54 53 52 51 51 51 49 48 48 48 49 48 48 49 50 50 50 51 54 54 55 57 59 59 58 58 58 60 60 60 61 61 62 64 67 67 67 67 68 69 70 69 69 65 47 23 12 12 13 14
58 55 59 65 63 61 60 56 56 60 61 61 62 62 62 60 60 61 60 60 61 62 63 61 59 57 56 54 54 53 53 52 50 50 50 52 53 54 55 55 55 55 57 58 58 60 61 60 60 60 60 61 62 63 64 63 64 66 68 69 69 69 71 72 70 69 70 61 38 18 12 14 14 15
65 62 68 72 69 68 67 61 58 61 63 64 61 58 55 53 53 51 50 51 52 54 56 56 54 54 55 55 56 57 57 56 56 57 55 53 54 56 58 59 59 60 61 60 61 63 64 64 66 66 66 66 67 67 68 68 68 69 69 70 70 70 71 72 70 70 67 49 26 14 14 15 16 17
70 70 74 77 73 73 75 72 65 61 64 69 66 60 58 59 62 62 60 58 55 51 49 47 45 45 45 47 49 51 52 53 55 59 62 62 63 62 61 61 62 64 64 63 66 67 65 65 70 73 74 75 74 71 71 71 70 69 69 69 70 70 70 71 70 69 62 41 21 15 16 17 18 19
78 77 76 75 73 73 74 74 71 67 64 65 63 59 56 55 59 64 68 72 73 71 68 66 63 60 57 55 53 50 48 47 49 53 59 65 70 71 70 69 67 66 66 65 66 66 61 60 66 74 78 81 81 75 72 71 70 69 69 70 71 70 69 70 69 67 59 42 25 18 18 19 20 23
84 83 80 76 70 68 66 63 62 64 63 62 62 62 60 59 60 64 70 73 72 71 72 72 73 74 75 75 71 66 63 60 58 58 60 61 62 66 74 78 75 71 68 65 65 67 67 65 66 71 74 76 78 77 73 72 71 70 70 71 71 69 68 69 68 65 58 44 28 20 21 24 26 29
82 81 79 76 70 67 66 64 63 64 66 67 68 68 68 68 67 68 70 70 68 69 69 67 68 71 73 73 70 65 62 61 63 65 64 64 65 69 74 77 74 70 68 67 70 75 76 73 70 72 73 72 73 77 76 74 73 71 69 70 71 70 69 68 66 63 56 41 28 24 27 29 31 34
67 64 62 64 64 63 64 66 67 67 66 64 61 59 55 52 50 48 47 47 48 50 51 49 49 48 47 48 46 43 42 46 53 58 61 66 71 73 73 72 73 73 70 68 71 73 73 72 71 72 73 72 74 78 78 76 74 71 68 68 70 70 70 69 66 62 54 40 31 31 34 35 39 44
56 55 54 54 57 59 60 60 57 52 48 45 42 40 37 34 32 32 32 31 31 31 31 32 32 31 31 30 29 28 27 28 30 36 47 59 65 67 69 72 75 79 76 72 74 75 73 72 73 74 75 75 77 80 78 74 72 70 68 68 70 71 71 68 64 60 52 42 38 39 43 48 54 57
51 53 53 52 52 52 49 46 42 38 35 34 32 31 30 28 26 25 25 25 25 24 24 23 22 22 22 21 20 19 17 21 28 32 36 44 50 58 69 76 77 76 76 78 83 86 82 74 67 67 71 73 76 79 77 73 70 69 68 69 70 71 69 65 63 59 51 46 46 50 57 63 67 67
46 48 48 46 46 45 41 37 33 31 29 26 22 20 20 19 18 17 17 17 16 15 15 15 15 16 17 17 18 16 15 27 50 63 66 67 71 74 77 80 81 79 76 74 73 76 81 80 74 74 77 78 81 82 78 73 71 69 69 70 69 68 67 66 64 57 51 52 55 58 65 72 73 74
45 46 46 45 44 43 39 32 24 19 18 15 13 12 12 12 12 12 13 14 14 14 14 14 14 15 17 18 19 20 20 25 36 48 56 61 66 69 70 72 76 76 74 72 66 65 74 83 85 87 86 85 88 88 80 75 73 69 68 69 69 69 70 69 64 57 58 64 65 64 70 77 79 82
23 25 26 26 25 24 22 18 13 12 12 13 13 14 15 16 17 19 20 22 21 19 19 22 26 31 38 43 46 49 53 52 49 47 46 44 43 48 56 64 68 68 73 79 76 74 82 86 84 82 83 85 89 87 80 76 73 69 69 71 71 71 71 68 63 62 67 72 71 71 76 80 84 87
14 14 14 14 13 13 13 12 12 12 12 15 19 24 29 35 40 43 43 43 42 39 40 49 61 67 69 72 73 73 75 76 74 72 70 65 60 58 62 68 72 76 80 81 79 83 92 92 83 76 78 83 86 83 79 75 68 63 66 69 68 68 70 70 67 67 72 74 72 75 81 86 89 92
14 13 13 14 15 15 16 16 19 23 27 32 36 41 48 56 62 63 64 64 64 63 64 71 78 77 73 72 73 74 74 74 75 77 78 77 75 74 74 75 79 84 86 83 82 88 94 92 87 82 79 81 82 79 78 73 64 59 64 66 66 70 76 75 70 68 71 72 71 75 80 83 86 88
20 20 22 21 20 23 30 38 45 53 58 61 62 63 66 71 72 72 72 72 72 73 75 77 77 75 74 74 76 77 76 72 70 75 79 80 80 82 82 83 85 88 91 89 88 91 91 89 89 87 83 81 79 75 74 72 65 62 64 66 68 72 74 72 70 70 71 71 72 74 73 73 81 89
31 31 30 29 33 45 58 65 68 70 71 72 72 73 74 75 75 75 75 75 75 76 76 75 74 73 73 74 77 80 82 78 72 69 68 71 79 84 85 87 89 89 90 91 90 91 89 85 82 80 79 79 77 73 72 72 69 67 66 67 71 73 70 69 71 72 73 74 78 78 74 77 89 98
39 40 42 48 58 69 74 74 72 72 73 71 72 73 75 77 78 79 78 78 79 80 79 77 77 77 75 75 76 78 80 81 78 71 61 64 82 93 92 90 92 91 89 89 88 84 81 78 76 77 78 78 75 72 72 70 67 65 64 68 73 74 72 73 73 72 74 78 81 80 80 86 95 97
43 50 59 69 76 77 76 75 76 77 76 73 72 75 77 80 83 84 83 83 85 86 85 85 85 85 83 81 80 80 81 82 82 76 65 64 82 99 98 91 89 87 86 85 83 79 77 78 81 82 80 76 73 74 77 75 67 61 62 67 72 74 74 75 76 75 77 80 82 85 90 94 95 94
54 63 71 76 78 78 78 81 83 83 79 77 78 80 79 80 83 83 83 86 90 91 91 90 90 89 89 87 85 83 85 85 85 83 75 69 74 87 96 96 93 89 88 89 88 86 87 88 87 84 78 72 68 70 76 73 63 62 70 74 73 76 76 75 77 81 83 85 89 93 94 92 90 91
68 75 76 76 79 81 84 86 84 82 81 81 85 88 89 89 89 87 87 91 94 93 91 90 89 87 85 82 80 79 82 86 87 90 90 86 80 78 82 88 91 91 91 92 92 94 95 91 86 80 76 72 68 67 70 64 54 60 77 80 74 75 77 75 77 85 89 93 98 98 92 87 87 90
77 78 77 80 84 85 86 85 81 80 85 89 91 94 96 97 95 93 93 94 93 90 88 87 86 84 80 78 77 77 80 85 89 93 98 100 96 90 87 89 92 93 94 95 96 96 92 86 82 80 79 80 80 80 81 75 62 64 80 86 79 76 78 77 78 84 89 94 98 96 92 90 90 89
85 81 80 86 87 83 83 86 86 88 95 99 98 98 98 99 98 96 95 94 92 91 90 88 85 82 81 80 81 82 84 88 92 96 99 99 100 99 98 98 99 99 99 99 97 93 87 84 85 86 86 89 91 88 88 86 76 72 83 90 84 79 81 81 80 84 90 94 95 93 91 91 89 85
86 79 78 82 83 82 86 93 97 99 100 100 99 100 100 99 99 98 97 95 92 92 90 85 80 76 74 75 79 86 93 97 97 99 99 99 99 100 99 99 100 99 99 99 96 91 88 90 93 91 88 90 91 85 82 85 85 83 87 88 84 82 83 82 84 90 94 93 91 90 88 87 84 81
83 83 86 87 88 91 95 98 100 100 99 99 100 100 99 99 99 99 99 95 89 84 78 73 70 69 71 76 83 90 96 99 99 99 99 99 100 100 99 100 101 99 98 99 97 94 92 92 92 90 86 86 89 87 85 86 87 87 87 85 82 83 83 82 87 94 95 90 88 87 85 84 82 79
84 93 99 91 83 84 89 94 99 100 99 100 100 99 99 100 99 97 96 91 82 77 74 76 79 81 83 89 94 96 98 99 99 99 100 99 100 99 99 100 100 99 99 99 97 95 91 87 85 84 83 84 89 92 90 87 86 88 90 86 82 83 87 88 90 93 92 90 88 85 84 86 86 84
89 95 96 83 72 74 83 93 100 100 99 100 100 99 100 100 95 91 89 86 82 83 86 91 95 96 96 97 99 100 100 100 99 100 100 99 100 100 100 100 99 99 99 99 98 97 94 90 87 86 84 85 89 91 92 90 89 92 93 87 80 81 87 88 88 88 88 85 80 77 78 79 80 80
85 88 87 78 74 78 86 95 100 100 99 100 100 99 100 99 96 92 89 85 84 88 93 96 97 98 99 100 100 99 99 98 97 98 99 99 100 99 99 99 100 98 97 97 98 98 96 93 89 86 86 87 87 87 89 90 91 92 91 86 82 81 82 83 81 80 79 76 72 73 76 76 72 69
82 86 87 85 82 82 87 94 99 100 99 100 100 100 100 100 99 97 92 86 82 81 82 87 91 93 95 96 96 95 96 96 94 94 95 97 99 99 98 98 98 96 93 93 93 93 92 91 89 89 90 92 91 90 89 89 89 90 90 88 85 82 83 86 85 81 79 76 73 78 86 84 75 67
86 90 94 94 88 84 87 92 94 96 98 100 100 100 99 99 100 99 96 93 89 83 76 78 84 88 87 88 89 90 91 92 92 92 92 93 95 97 98 98 98 96 93 92 91 90 91 92 93 93 93 92 91 91 91 89 89 90 91 90 86 82 85 90 89 84 84 81 76 80 88 83 70 64
Wind_Speed
14 14 12 13 15 14 14 14 14 16 19 20 20 17 15 16 17 17 15 15 16 15 15 14 13 12 10 7 10 10 9 8 7 7 8 7 8 8 8 8 7 6 6 5 5 5 5 6 6 7 7 7 8 9 10 10 11 12 13 13 14 13 13 13 13 13 13 12 11 10 9 8 8 8
13 14 13 14 15 15 15 15 16 19 19 19 21 19 15 14 15 16 16 16 15 15 15 14 13 12 10 8 10 10 9 8 6 7 7 7 7 6 6 6 6 5 4 3 2 3 3 4 5 6 6 7 8 9 10 11 12 13 13 14 15 15 15 15 15 15 15 15 15 14 13 11 11 10
12 13 14 14 15 16 17 17 18 19 18 19 20 18 15 13 12 14 16 17 14 13 14 14 13 12 10 9 11 11 9 7 6 7 7 7 6 6 6 6 6 4 3 2 1 1 1 2 3 4 5 7 8 9 10 11 12 13 14 15 16 16 17 17 17 17 17 17 17 17 16 15 14 13
10 12 13 13 14 16 19 19 19 19 17 18 18 16 13 12 11 12 14 17 15 12 13 15 13 11 10 9 10 11 10 7 6 5 5 7 8 8 7 7 7 6 5 3 2 2 2 2 3 4 5 6 8 9 10 11 12 13 14 15 16 17 18 19 19 19 19 19 19 18 18 17 16 15
10 11 12 13 13 16 20 19 17 18 17 18 17 14 12 11 11 12 13 17 17 13 11 12 12 12 12 10 9 9 9 8 6 6 5 6 7 7 8 9 9 9 8 6 5 5 4 5 5 5 6 7 8 9 10 11 11 12 13 14 15 16 17 18 19 20 20 20 20 20 19 18 17 16
9 11 13 15 14 16 20 17 15 16 16 19 16 11 11 13 12 12 14 16 18 17 15 12 13 15 12 11 11 10 8 7 7 8 9 8 8 8 8 9 11 11 9 7 6 6 7 7 7 8 8 9 9 10 11 12 12 13 14 14 15 16 17 18 19 21 21 21 21 21 21 20 18 17
10 12 14 15 15 17 18 16 14 14 16 19 15 11 10 11 12 14 14 16 19 19 19 16 15 16 12 12 14 12 10 9 8 9 11 11 10 9 8 7 8 10 9 6 8 8 9 9 10 10 11 11 11 12 12 13 13 14 15 15 16 17 18 19 19 21 22 22 23 22 22 21 19 18
8 12 14 15 16 18 18 17 15 13 17 19 13 11 11 8 11 15 11 14 18 18 19 19 17 16 13 13 15 15 14 13 11 10 10 11 11 11 11 9 7 7 7 8 11 13 13 13 14 14 14 14 14 14 14 15 15 15 15 16 17 17 18 19 20 21 22 23 23 24 23 22 20 19
6 8 12 14 15 16 17 19 16 12 15 15 8 10 12 7 10 12 9 14 17 14 15 17 16 17 15 13 15 16 17 16 14 11 9 8 10 12 14 14 13 11 11 13 15 17 18 18 17 16 17 17 17 17 16 17 17 17 17 17 17 18 19 20 20 21 22 23 24 24 24 23 21 19
7 5 6 9 11 13 15 19 19 13 11 10 8 11 13 9 10 10 8 12 14 12 14 13 12 16 17 13 14 15 16 18 16 13 11 11 11 12 15 17 18 17 16 17 19 20 20 20 18 18 19 19 19 18 18 18 19 18 18 18 18 19 19 20 21 21 22 23 24 24 24 24 22 20
5 4 4 4 5 9 14 19 19 15 12 11 9 11 14 12 13 14 12 11 10 9 11 11 10 13 14 13 13 12 12 16 18 16 15 15 14 13 16 20 20 19 20 21 21 21 22 23 21 20 20 21 21 20 19 20 20 20 19 19 20 20 20 21 22 22 23 24 25 25 25 24 22 21
7 6 5 4 3 7 12 17 19 17 14 12 9 12 14 10 10 15 14 13 12 9 7 10 11 9 10 13 15 12 10 13 16 17 17 18 16 13 16 20 21 21 22 23 23 23 24 24 23 21 21 22 21 20 20 21 21 21 21 21 21 20 20 21 22 23 23 25 26 26 26 25 23 22
8 6 5 5 4 5 7 12 17 17 15 13 10 12 14 10 9 12 11 9 12 10 8 10 11 10 10 11 14 16 15 14 15 15 15 16 17 16 16 18 20 21 22 23 24 24 25 24 24 23 24 23 21 21 23 24 23 22 21 21 22 21 21 22 23 23 23 24 26 26 26 25 23 23
5 4 5 5 5 5 5 7 11 14 15 15 12 12 13 12 10 10 9 7 9 9 9 10 11 12 13 13 14 16 16 16 17 16 15 16 17 17 16 17 18 19 21 23 25 25 24 24 24 26 27 25 25 27 28 27 25 22 21 21 22 22 22 23 23 23 23 24 26 26 25 24 23 23
4 4 4 5 5 6 7 8 8 11 13 15 15 13 13 14 13 11 11 10 10 10 11 11 10 12 13 13 14 15 15 17 18 19 20 21 20 19 19 21 21 19 18 20 23 23 23 24 27 30 31 30 30 31 30 28 26 24 23 22 23 23 24 24 24 23 23 24 25 26 25 24 23 23
5 6 6 5 4 6 9 10 9 10 12 14 15 14 12 14 14 14 13 13 13 13 13 13 13 13 13 12 12 13 14 17 18 19 20 21 22 22 22 23 24 23 20 20 23 24 25 26 29 32 34 34 33 31 29 28 28 27 25 24 25 25 25 25 24 23 23 24 25 25 24 23 24 23
7 9 7 6 5 6 8 9 9 8 9 12 14 15 14 13 14 15 15 15 15 14 14 15 16 16 16 15 15 14 14 16 18 20 20 20 20 21 21 23 24 24 24 24 26 27 28 29 32 34 35 35 35 32 28 27 27 27 27 27 26 26 26 25 24 23 23 24 25 24 23 23 23 23
8 11 10 8 8 7 6 8 9 8 7 8 10 13 13 13 13 15 16 16 17 18 17 17 18 18 18 20 20 20 20 19 20 22 23 24 25 25 26 26 26 25 25 25 26 27 28 29 33 34 33 33 33 31 28 26 26 27 28 27 26 26 25 24 23 23 23 23 23 23 22 23 23 24
6 9 8 7 8 7 5 6 8 9 8 7 8 9 10 10 10 10 12 13 15 17 19 20 20 20 21 22 23 23 24 25 25 25 25 26 27 29 30 30 30 30 29 29 29 30 31 30 31 31 30 30 32 30 27 27 27 26 26 26 26 26 25 24 23 23 22 23 23 22 22 22 24 25
5 7 8 7 7 7 6 5 6 8 8 9 9 10 10 10 10 10 11 12 13 15 17 19 20 22 23 23 24 25 25 26 27 27 27 28 28 29 31 32 32 32 32 31 32 34 34 32 31 31 28 27 29 30 29 28 27 25 25 26 26 26 26 25 23 23 23 23 22 21 21 22 24 24
4 5 6 6 6 7 7 7 8 9 9 10 11 12 12 13 13 14 15 16 17 19 20 21 22 23 24 25 26 26 27 27 28 28 29 30 30 31 32 33 35 35 35 34 33 34 35 33 31 31 30 27 28 30 30 29 27 26 26 27 27 28 27 25 24 24 24 23 21 20 20 21 22 22
3 4 5 7 7 9 9 10 11 11 12 13 14 15 16 17 17 18 19 20 22 22 23 25 26 26 27 28 29 29 29 30 31 32 34 34 32 33 33 34 36 38 39 37 34 33 35 33 30 31 32 30 29 30 31 30 29 28 28 28 29 27 25 25 25 25 24 22 20 19 19 20 21 20
1 4 6 8 9 12 13 13 13 13 14 15 16 17 18 18 19 21 21 22 23 24 25 26 27 28 29 29 30 30 30 30 30 31 33 34 35 36 37 38 39 40 41 40 36 35 36 35 32 31 32 30 28 29 32 32 31 30 29 30 29 25 23 25 26 26 24 21 19 18 18 19 20 19
1 5 7 9 11 13 14 14 14 14 14 15 16 17 19 20 22 23 24 24 26 27 28 29 29 30 31 31 32 32 32 33 33 32 33 33 34 36 36 37 40 42 43 41 37 35 35 35 34 33 32 31 31 31 31 32 32 30 29 28 26 22 23 26 26 24 22 19 18 17 16 17 18 19
4 8 10 11 12 14 14 15 16 17 18 20 20 21 22 23 24 26 27 28 29 30 31 31 32 32 33 33 33 33 34 33 33 34 34 35 35 36 35 35 37 41 43 39 35 34 36 37 39 39 37 36 36 34 31 30 31 29 27 26 23 21 23 25 23 21 19 16 14 14 14 14 16 17
9 11 13 14 15 17 18 19 20 21 22 23 23 23 23 24 25 27 28 28 29 30 31 32 32 33 33 33 33 34 34 32 30 30 31 32 33 34 34 35 36 38 38 34 33 36 38 38 38 38 37 36 35 33 31 30 29 26 24 23 22 21 20 19 19 18 15 12 12 12 12 12 14 16
14 16 18 18 17 19 20 20 21 21 21 21 21 22 22 23 24 25 25 25 26 26 27 28 29 29 29 29 29 29 29 29 29 29 31 33 35 36 36 36 38 38 37 35 36 39 40 40 39 35 32 32 31 28 29 29 27 24 22 20 19 18 16 16 16 15 12 11 11 11 11 11 11 13
14 15 16 16 16 16 17 18 19 20 20 20 20 19 18 19 19 20 21 21 22 22 23 22 23 23 23 22 22 22 21 22 23 24 26 29 32 35 36 36 37 39 38 37 37 38 40 43 40 32 27 29 29 27 28 29 25 21 20 17 15 16 17 16 13 10 9 12 12 11 10 10 9 10
12 12 12 13 14 14 15 15 16 17 17 17 16 15 14 14 15 16 18 19 19 19 19 18 19 21 21 20 19 19 19 19 18 18 21 23 25 29 33 35 37 38 37 36 36 37 38 38 32 24 21 25 27 27 30 29 23 18 17 17 16 16 16 12 7 6 10 13 13 11 9 8 8 10
10 10 11 11 12 12 12 12 11 11 11 12 12 12 13 14 15 16 17 18 18 18 17 17 19 21 21 21 22 23 24 23 20 17 18 20 22 26 30 33 34 34 31 31 33 34 33 30 26 22 22 24 25 25 27 25 19 14 13 14 14 11 9 8 7 8 13 17 17 15 13 12 12 10
8 9 9 9 9 9 9 10 11 12 11 11 11 12 12 12 13 14 15 15 16 16 17 18 18 19 18 19 20 22 24 25 24 21 19 19 20 24 28 30 31 30 29 29 30 30 27 24 23 22 22 24 26 25 22 19 15 12 10 11 12 13 11 10 10 12 17 20 21 19 17 14 10 7
9 9 9 9 9 10 11 11 9 8 7 7 7 7 8 9 10 10 11 12 12 13 16 18 19 20 20 20 21 22 23 25 25 24 25 26 23 23 26 28 28 28 29 29 29 27 25 23 23 22 23 25 26 25 23 20 18 16 12 10 12 15 15 14 14 17 18 19 19 18 15 10 6 6
8 8 8 9 10 10 8 6 6 6 7 7 7 7 8 8 9 9 10 11 11 13 16 18 20 22 23 23 24 25 26 27 27 26 27 28 22 18 19 22 23 25 27 27 26 25 24 24 24 23 22 22 22 24 23 21 19 18 16 12 11 15 16 16 17 18 18 18 17 16 11 6 6 8
8 8 8 7 5 4 4 6 7 9 10 11 10 9 9 8 9 11 11 11 11 14 17 18 19 20 22 24 25 27 28 30 31 30 29 27 22 16 14 15 16 19 22 23 24 25 26 26 25 24 22 20 19 19 17 15 14 15 16 15 14 14 14 14 16 17 18 17 14 11 7 4 4 8
9 10 9 6 5 6 7 8 9 10 11 12 12 12 12 12 12 13 12 11 13 17 19 20 21 22 24 26 27 29 30 31 32 32 31 27 23 22 21 20 18 19 21 24 27 28 27 25 25 23 19 16 16 17 16 14 12 12 13 15 19 19 16 15 15 16 15 10 6 5 5 3 4 8
10 10 9 9 9 10 9 9 10 12 12 11 12 13 14 15 15 15 14 14 16 18 20 22 24 25 27 28 29 31 32 32 33 32 30 26 23 23 24 24 22 22 25 28 29 28 25 23 21 19 16 15 15 16 16 14 14 14 13 13 16 19 17 16 16 15 11 5 3 3 3 3 3 7
8 6 6 8 8 7 8 9 11 12 12 11 11 12 13 14 15 16 16 17 18 19 21 23 24 25 27 29 30 32 33 33 32 31 28 27 25 22 19 19 20 22 26 28 27 24 20 17 14 12 11 11 10 10 10 10 13 16 13 9 10 13 13 13 14 12 7 4 4 3 2 2 5 9
5 4 4 4 5 6 7 9 11 10 10 11 11 12 12 13 14 15 16 17 18 20 21 23 23 23 24 25 26 28 29 28 28 27 25 25 25 22 19 18 20 22 24 23 20 16 12 9 8 7 6 6 6 6 8 9 12 17 16 11 10 12 13 12 10 6 4 3 2 3 4 6 8 10
4 5 5 5 7 8 8 8 9 9 10 10 10 11 11 11 12 14 16 18 19 20 20 20 19 18 18 18 19 20 21 21 21 21 20 19 19 18 18 18 19 19 18 17 14 12 10 9 9 9 8 6 5 4 5 8 12 15 16 13 12 12 12 9 6 7 5 3 4 4 6 7 8 9
5 4 6 7 7 8 8 8 8 10 11 10 9 9 10 11 12 15 17 17 17 16 15 15 15 16 17 18 19 19 18 18 18 17 15 14 13 12 12 12 13 13 14 13 13 13 12 10 10 10 9 8 6 4 5 7 8 9 9 7 6 8 9 7 8 8 5 6 7 7 6 6 7 9
3 3 6 8 8 8 8 7 8 9 10 10 8 7 8 10 11 12 13 13 13 14 15 17 18 20 21 20 20 19 17 16 14 13 11 10 9 8 7 8 9 9 8 8 8 9 9 9 9 10 10 9 7 4 3 3 3 3 2 2 1 4 7 7 9 7 7 8 8 8 8 5 5 6
3 3 6 9 10 9 7 5 5 6 7 7 7 6 6 8 9 10 11 13 15 16 18 19 19 19 19 18 16 15 14 12 10 8 7 6 5 5 6 6 5 4 4 4 4 4 4 5 6 8 10 11 9 4 2 2 2 3 2 3 3 4 7 8 7 6 7 7 6 5 3 2 3 3
5 5 7 9 9 7 4 3 3 4 5 6 7 7 8 10 13 14 15 16 17 17 17 17 16 16 15 14 13 12 10 9 7 6 5 3 1 3 4 5 6 7 7 5 3 2 2 3 5 5 5 6 7 4 4 5 3 2 2 4 5 5 4 4 4 2 1 2 1 4 5 5 5 4
4 4 5 6 7 7 5 3 4 6 7 8 10 10 10 12 14 15 15 15 16 17 17 17 17 16 14 13 12 11 10 9 8 7 5 3 2 1 2 3 4 5 5 3 1 0 1 1 1 3 5 5 4 4 6 7 6 3 1 1 3 4 2 2 2 2 1 2 3 6 8 10 9 7
1 2 4 6 8 9 8 7 6 7 8 10 11 11 10 10 12 13 14 14 15 17 18 19 19 18 16 15 15 14 13 11 10 9 8 6 4 3 2 3 3 3 3 2 3 4 5 6 6 5 4 4 4 4 4 6 7 5 3 2 3 3 2 2 3 3 2 3 3 6 8 9 9 8
Wind_Direction
196 196 192 194 196 194 191 193 191 183 180 175 169 168 170 172 168 168 173 169 163 164 167 172 190 221 235 195 179 188 180 171 161 150 148 145 143 144 142 141 137 133 130 118 110 102 91 84 77 71 65 59 56 52 47 43 39 36 33 29 26 23 20 19 18 18 18 17 16 12 8 5 360 356
188 192 194 194 191 193 191 192 193 185 181 181 175 168 174 183 173 172 172 160 159 168 175 187 199 216 229 198 184 193 186 180 178 166 159 153 157 162 158 158 156 150 146 132 112 97 85 76 68 60 53 47 41 38 36 33 29 25 22 20 18 16 14 11 10 10 10 9 9 6 2 359 356 353
181 184 190 192 189 192 189 185 188 186 184 187 178 168 177 188 183 181 172 159 164 176 181 193 204 218 224 203 195 196 189 194 199 186 173 167 179 186 181 185 186 183 189 183 196 5 38 44 43 37 31 28 25 24 22 21 20 16 13 11 9 7 6 5 5 4 4 4 3 2 358 353 350 346
175 178 186 188 188 193 189 183 185 183 179 180 176 175 189 197 196 195 178 162 164 176 188 192 197 217 224 209 205 198 187 198 221 214 186 181 197 205 203 210 212 216 229 237 264 296 319 331 349 3 5 7 6 8 8 8 9 7 6 4 2 0 359 359 359 358 358 358 357 357 355 352 347 343
169 176 184 186 189 191 187 184 186 185 179 176 179 189 200 201 193 184 171 162 162 169 187 192 195 212 218 208 211 203 186 198 225 235 217 197 212 224 219 224 228 230 235 242 263 283 293 308 324 332 340 346 347 349 350 351 353 354 355 355 354 354 352 352 353 352 353 352 352 352 350 348 345 341
167 175 184 186 186 186 185 185 186 189 183 176 178 184 195 206 197 179 175 175 175 176 180 184 196 210 211 201 207 208 198 206 217 228 237 231 233 243 239 241 240 233 232 243 264 281 285 293 305 313 322 328 330 334 335 336 339 340 342 344 345 346 345 346 346 346 348 347 347 347 346 345 343 339
170 174 180 181 181 183 186 184 179 183 181 176 178 177 192 220 206 185 190 193 189 186 183 182 194 208 207 199 210 220 222 230 229 227 242 249 251 254 257 266 245 222 225 257 279 289 292 295 302 304 309 313 316 319 321 324 328 329 332 334 335 336 337 339 341 341 342 343 342 343 343 342 339 336
164 171 177 177 178 181 182 175 173 186 184 179 186 185 188 218 198 186 202 204 194 190 185 184 193 212 217 203 208 225 233 239 242 240 248 254 256 263 274 292 282 246 255 281 286 291 295 298 301 301 301 303 305 308 311 315 318 320 323 326 327 329 329 332 334 336 338 338 338 339 339 339 336 333
116 154 179 180 180 181 177 170 174 196 188 178 190 188 182 200 197 194 207 199 193 195 193 189 193 212 223 205 196 215 231 237 242 251 260 254 250 257 263 272 278 276 277 276 276 284 292 297 298 296 296 297 297 301 305 308 310 312 315 318 320 321 322 324 327 330 332 334 334 335 335 335 333 329
106 105 165 181 183 184 180 172 175 193 195 193 212 195 184 193 201 206 205 184 184 197 202 193 189 205 218 211 196 204 223 235 242 250 253 243 239 246 248 252 258 264 268 269 272 279 285 290 291 290 291 292 293 296 299 301 303 304 308 311 314 316 316 319 321 323 327 330 331 332 332 331 330 326
150 118 140 173 175 177 179 175 176 186 197 210 215 189 186 202 209 212 218 203 194 201 202 196 195 204 209 210 211 208 216 233 243 249 245 235 235 243 245 245 247 254 262 265 267 272 279 285 287 287 287 286 286 290 292 294 297 300 304 307 309 311 312 313 316 318 322 326 328 329 329 328 326 324
134 139 165 184 169 167 175 179 182 186 196 212 210 182 181 194 200 204 215 221 220 225 227 217 215 217 210 210 220 223 219 227 237 244 244 240 242 246 245 244 248 258 266 266 264 267 275 282 285 288 288 284 281 286 291 294 296 298 301 303 304 306 307 308 310 313 316 320 323 325 325 324 323 321
124 148 176 176 178 177 177 183 187 191 201 214 211 190 187 184 179 189 200 213 218 225 246 246 240 246 248 238 236 238 240 243 245 246 246 246 248 248 249 253 259 265 266 264 266 271 275 279 281 283 285 281 278 286 295 297 297 296 298 299 300 300 301 303 305 307 310 315 319 321 321 320 319 318
134 182 196 190 198 202 199 199 198 202 208 215 212 204 203 202 197 197 199 206 218 224 240 249 248 251 254 249 246 246 250 257 260 259 257 257 254 251 252 256 264 274 274 267 268 274 276 277 277 278 278 276 276 285 293 296 296 295 296 298 298 297 297 298 301 302 305 310 314 317 317 316 315 315
159 201 208 205 212 216 215 212 211 213 214 216 216 215 215 216 220 219 216 217 222 225 235 242 243 245 249 250 251 252 255 260 265 265 266 268 269 266 263 259 260 271 279 273 270 272 274 274 276 278 278 275 277 285 291 293 294 294 295 296 296 294 294 296 296 297 301 306 310 312 312 312 312 314
176 201 211 209 216 228 223 214 211 214 216 217 218 218 217 219 225 228 228 229 229 230 238 243 240 238 242 249 255 257 259 260 260 262 265 268 272 272 271 268 267 267 268 268 270 274 276 274 275 277 279 279 280 284 287 289 292 295 294 294 293 292 292 294 294 294 297 303 306 307 308 308 310 312
156 165 170 161 163 190 208 206 200 201 210 216 217 220 224 225 227 229 231 235 236 237 242 245 246 246 245 247 251 253 255 255 255 257 258 260 264 265 263 265 268 269 269 268 270 272 274 275 276 276 278 280 282 281 279 282 288 291 290 289 290 290 290 290 291 292 295 300 302 302 304 306 308 310
167 156 150 151 169 186 205 204 196 191 201 214 221 228 233 238 243 244 244 246 246 245 247 249 252 253 252 252 254 255 257 257 258 261 261 259 260 260 259 258 259 261 263 265 266 266 269 275 278 278 279 280 277 274 273 275 280 283 284 284 286 289 290 288 286 289 293 296 298 299 302 304 306 306
187 172 167 174 183 192 205 201 199 202 206 215 231 241 242 244 251 256 257 260 260 259 261 262 262 261 261 261 260 260 260 260 261 262 263 263 262 262 262 262 261 261 261 260 262 264 267 271 272 272 276 277 271 268 269 272 275 278 280 281 282 285 288 285 283 286 291 294 296 299 301 303 303 304
195 199 207 211 203 209 226 224 219 224 228 237 249 257 258 257 259 261 262 262 263 265 268 271 272 273 274 273 271 269 267 266 266 266 265 264 264 265 266 266 266 266 264 264 266 269 273 276 271 267 271 273 270 270 270 268 270 274 275 275 276 278 281 284 284 286 290 295 296 299 301 302 303 303
200 212 223 230 229 237 247 249 250 253 256 262 268 273 276 276 276 273 269 263 259 258 260 263 267 269 272 276 279 279 276 274 274 273 270 267 267 268 268 268 268 268 269 271 273 271 274 277 272 267 270 271 270 272 270 265 266 270 270 267 266 267 272 279 284 287 290 293 296 298 301 302 303 305
228 238 249 251 248 249 253 257 259 265 270 274 278 280 281 281 280 277 274 272 269 265 264 265 267 268 269 273 278 279 278 277 277 275 273 270 269 269 268 267 269 271 273 273 271 269 272 274 270 270 273 273 268 266 264 262 264 266 264 260 257 257 263 273 280 285 288 291 294 298 301 301 303 306
276 270 270 268 261 258 262 265 267 271 275 277 279 280 279 279 278 277 277 277 277 275 274 274 274 274 274 276 277 279 279 277 276 275 274 273 271 270 269 269 268 268 270 270 269 271 274 275 273 270 268 267 261 255 256 260 261 261 258 254 251 250 257 269 275 280 285 291 295 299 301 302 304 309
271 261 258 262 263 263 267 273 278 280 282 282 283 282 282 282 281 281 281 281 281 281 281 280 280 280 280 280 281 282 281 280 278 276 274 272 271 272 273 272 269 267 269 272 272 272 273 275 274 270 265 261 255 250 252 256 255 253 250 248 247 247 255 265 270 276 283 290 293 297 302 305 308 314
237 253 254 259 269 276 281 284 288 290 290 291 291 289 288 287 285 284 284 284 284 284 283 282 281 280 280 281 282 282 283 283 284 282 278 275 275 276 277 276 273 271 271 272 273 272 273 274 273 270 265 259 253 251 250 247 243 243 246 247 246 246 253 261 268 278 285 286 289 296 304 308 311 315
254 265 270 273 279 285 289 291 292 294 294 295 295 294 292 291 289 288 288 288 287 286 285 285 283 283 283 282 282 280 279 278 278 280 282 282 281 280 278 278 276 273 271 272 273 273 272 271 269 266 261 253 248 248 246 238 234 236 240 242 246 249 253 262 273 284 287 280 284 294 296 300 306 310
265 268 272 277 280 281 285 290 293 295 295 295 295 294 293 293 293 293 293 294 294 293 292 292 291 292 292 291 289 288 286 281 276 273 274 275 277 278 279 279 279 279 278 276 274 272 270 267 265 262 259 255 250 245 241 238 236 234 234 238 248 255 259 267 278 287 285 274 278 284 282 285 293 297
278 278 281 286 287 284 284 287 290 293 296 299 301 303 303 301 301 301 303 304 304 303 303 305 307 310 313 313 310 309 307 301 295 289 284 279 277 278 280 281 281 280 277 273 269 267 266 265 266 264 261 258 255 247 241 239 235 227 224 227 239 255 265 274 284 288 274 268 269 266 266 277 284 285
296 296 295 295 295 296 296 295 295 297 300 305 312 317 319 321 322 321 320 320 319 317 317 318 321 323 324 322 314 305 298 295 297 303 304 299 291 283 280 280 278 273 268 267 268 266 262 263 269 272 261 254 252 245 239 235 227 213 213 225 242 260 269 272 274 258 244 250 257 256 258 268 272 276
303 301 303 306 308 311 313 312 315 320 321 324 328 330 335 339 337 334 334 333 333 333 332 328 321 315 310 304 296 289 284 281 282 290 300 303 301 293 283 278 276 272 266 266 268 265 260 261 270 271 258 250 249 244 238 238 232 214 213 233 243 245 246 245 242 234 232 237 243 247 250 252 255 261
324 331 335 334 331 335 343 351 357 1 359 356 353 351 348 342 335 335 337 336 334 335 333 324 314 306 300 298 296 290 284 279 276 277 281 287 298 302 294 284 280 276 270 267 266 263 262 265 270 271 265 259 255 247 238 240 241 226 217 230 227 216 221 233 229 224 230 237 242 247 252 255 255 259
353 357 354 352 2 13 16 14 10 4 356 350 348 343 332 320 319 323 324 322 325 327 318 307 301 297 295 297 300 299 294 287 281 278 276 278 289 305 300 286 276 272 269 267 265 263 267 274 279 282 281 275 267 256 245 241 240 230 220 227 230 224 225 227 217 214 224 234 242 253 260 256 237 239
2 7 12 18 25 28 19 358 335 317 307 303 300 302 306 311 314 309 302 305 315 316 309 304 303 301 297 296 298 299 300 298 294 290 285 280 285 304 301 281 269 268 267 266 267 272 280 289 293 292 286 276 266 260 253 242 232 222 212 215 226 223 221 225 226 229 237 244 249 258 262 240 215 236
4 13 21 23 20 9 348 332 324 316 309 304 300 296 297 302 302 297 297 305 311 309 306 306 306 304 300 299 298 298 299 300 298 298 297 288 281 285 290 279 267 263 264 270 280 288 292 295 296 294 286 270 254 249 244 234 225 216 208 211 219 215 214 226 236 243 252 256 255 250 237 211 230 251
18 10 6 7 360 353 351 340 326 318 317 320 324 322 318 316 313 310 311 312 308 306 306 305 305 305 305 305 304 302 301 301 299 300 302 297 281 269 272 275 269 263 268 280 287 289 290 291 290 287 278 261 241 230 227 228 227 216 207 214 219 216 216 227 240 250 257 259 254 233 204 198 260 262
40 14 4 15 14 1 352 337 322 319 322 328 332 330 327 327 326 324 323 315 306 304 305 304 305 305 302 301 300 299 298 298 298 299 301 302 294 280 272 272 271 273 278 282 282 281 281 281 278 272 263 253 242 234 233 232 223 211 210 218 221 220 225 231 239 249 254 240 216 221 193 180 257 268
47 13 5 19 12 350 333 322 318 323 329 328 325 320 317 319 320 317 315 312 308 307 307 305 304 302 301 300 300 300 299 297 295 294 293 296 297 294 285 277 275 275 274 272 271 270 268 265 261 256 250 244 241 241 244 230 206 200 208 221 223 225 236 243 243 244 238 191 181 221 245 247 265 274
23 351 354 2 332 312 311 313 318 327 328 321 321 324 322 319 316 313 312 313 313 312 310 309 309 310 310 310 309 309 309 306 300 296 294 291 291 292 288 278 273 269 262 258 256 252 245 235 220 205 208 218 227 245 249 229 202 196 203 219 232 239 251 257 245 216 165 148 182 241 263 264 270 282
321 320 320 313 312 320 330 332 329 326 320 318 325 332 329 323 320 316 314 316 317 316 316 319 322 326 329 331 332 331 327 320 314 309 303 294 289 289 284 272 263 255 246 239 231 216 200 191 187 186 192 203 207 205 201 198 196 196 201 214 231 244 252 245 193 151 141 183 233 248 255 263 273 282
300 324 323 319 331 339 342 349 348 339 335 336 334 325 316 313 315 315 315 320 327 331 336 343 350 356 360 360 359 356 345 332 325 320 311 298 288 285 276 259 243 229 220 214 204 193 189 190 197 205 210 209 201 175 155 165 181 195 208 221 234 245 245 212 166 160 185 206 213 225 241 268 289 286
309 356 335 327 334 334 336 356 3 347 337 335 333 326 318 316 318 320 324 334 347 356 2 6 6 7 7 5 2 358 351 339 330 322 311 298 281 261 237 220 213 211 209 203 191 191 199 206 216 225 227 224 226 221 180 169 175 183 205 327 324 225 217 190 170 184 210 214 221 231 232 253 300 299
331 360 338 330 334 338 351 18 9 334 325 335 349 2 359 348 353 0 2 3 7 8 9 9 6 3 4 4 360 355 351 345 338 328 316 297 261 222 195 181 171 154 143 144 152 169 193 209 231 244 240 239 246 246 141 133 213 199 163 44 65 157 180 178 181 204 221 223 236 248 233 251 299 289
336 342 332 333 343 355 13 38 24 3 8 17 23 30 26 16 16 19 17 15 15 15 13 11 7 4 6 7 5 1 359 357 358 355 346 327 254 186 164 154 142 132 134 146 157 175 218 245 262 264 247 244 253 238 159 152 175 174 99 72 87 109 138 167 185 221 235 176 113 49 40 23 1 331
336 341 340 351 11 25 36 57 69 65 55 42 37 36 28 18 16 18 18 21 24 25 25 23 20 17 18 17 15 18 22 25 27 28 25 21 33 98 138 155 156 152 155 164 171 99 62 89 139 132 121 117 129 146 151 152 147 138 135 115 100 87 84 114 111 70 79 113 66 29 19 16 15 10
29 47 40 39 45 49 54 58 63 68 63 49 39 34 26 15 13 14 17 23 27 28 32 34 31 28 29 32 31 31 33 35 38 40 42 46 55 69 93 111 120 129 130 97 73 78 80 75 77 83 87 101 124 141 154 153 148 152 175 159 107 88 94 108 87 68 76 73 24 0 2 15 26 33